Location: Bienfait
(49.1431°N, 102.8077°W)
Time: 00:04:24
(UTC+00:00)

X-37B - Visible Passes

Search period start: 05 June 2023 00:00
Search period end: 15 June 2023 00:00
Orbit: 277 x 277 km, 45.0° (Epoch: 01 November)

Date Brightness Start Highest point End Pass type
(mag) Time Alt. Az. Time Alt. Az. Time Alt. Az.
11 Jun 2.5 09:44:52 10° S 09:45:46 11° SSE 09:46:39 10° SE visible
12 Jun 2.0 09:44:49 11° SSW 09:46:16 16° SSE 09:47:54 10° ESE visible
13 Jun 1.6 09:45:11 12° SSW 09:46:49 21° SSE 09:48:46 10° ESE visible
14 Jun 1.2 09:45:32 12° SW 09:47:22 26° S 09:49:30 10° ESE visible
